Powrót do katalogu

COSMOS 1188 DEB

LostHEO
NORAD 26917·DEBRIS·🇷🇺 Russia

Wystrzelony Jun 14, 1980 z Plesetsk Cosmodrome

Loading…

Następne Przeloty (najbliższe 24 godziny)

TLE

NieaktualneSource: Space-Track

Epoka: Nov 13, 2018, 08:06 UTC

1 26917U 80050H   18317.33762798  .00000024  00000-0  00000+0 0  9998
2 26917  74.1945  15.3846 5172291 287.0541  24.3513  1.89513729125009

Śledź COSMOS 1188 DEB w czasie rzeczywistym z AllMySat

Download on the App Store